Terug naar catalogus

THOR ABLESTAR DEB

ActiefLEO
NORAD 158·DEBRIS·🇺🇸 United States

Gelanceerd Jun 29, 1961 vanaf Cape Canaveral Space Force Station

Loading…

Volgende Passages (komende 24 uur)

TLE

VersSource: Space-Track

Epoch: Sep 8, 2026, 19:19 UTC

1   158U 61015AU  26251.80513100  .00000207  00000-0  66153-3 0  9994
2   158  67.0745  49.4823 0611243 193.5543 164.8400 12.66260765 15800

Volg THOR ABLESTAR DEB in realtime met AllMySat

Download on the App Store